"datetime","# probes","# resolvers","can_ipv6","can_ipv6_prbs","can_tcp","can_tcp_prbs","can_tcp6","can_tcp6_prbs","does_ecs","does_ecs_prbs","does_flagday","does_flagday_prbs","does_rov4","does_rov4_prbs","does_rov6","does_rov6_prbs","does_qnamemin","doesnt_qnamemin","does_qnamemin_prbs","doesnt_qnamemin_prbs","does_nxdomain","doesnt_nxdomain","does_nxdomain_prbs","doesnt_nxdomain_prbs","has_ta_19036","hasnt_ta_19036","has_ta_19036_prbs","hasnt_ta_19036_prbs","has_ta_20326","hasnt_ta_20326","has_ta_20326_prbs","hasnt_ta_20326_prbs","can_rsamd5","cannot_rsamd5","broken_rsamd5","can_rsamd5_prbs","cannot_rsamd5_prbs","broken_rsamd5_prbs","can_dsa","cannot_dsa","broken_dsa","can_dsa_prbs","cannot_dsa_prbs","broken_dsa_prbs","can_rsasha1","cannot_rsasha1","broken_rsasha1","can_rsasha1_prbs","cannot_rsasha1_prbs","broken_rsasha1_prbs","can_dsansec3","cannot_dsansec3","broken_dsansec3","can_dsansec3_prbs","cannot_dsansec3_prbs","broken_dsansec3_prbs","can_rsansec3","cannot_rsansec3","broken_rsansec3","can_rsansec3_prbs","cannot_rsansec3_prbs","broken_rsansec3_prbs","can_rsasha256","cannot_rsasha256","broken_rsasha256","can_rsasha256_prbs","cannot_rsasha256_prbs","broken_rsasha256_prbs","can_rsasha512","cannot_rsasha512","broken_rsasha512","can_rsasha512_prbs","cannot_rsasha512_prbs","broken_rsasha512_prbs","can_eccgost","cannot_eccgost","broken_eccgost","can_eccgost_prbs","cannot_eccgost_prbs","broken_eccgost_prbs","can_ecdsa256","cannot_ecdsa256","broken_ecdsa256","can_ecdsa256_prbs","cannot_ecdsa256_prbs","broken_ecdsa256_prbs","can_ecdsa384","cannot_ecdsa384","broken_ecdsa384","can_ecdsa384_prbs","cannot_ecdsa384_prbs","broken_ecdsa384_prbs","can_ed25519","cannot_ed25519","broken_ed25519","can_ed25519_prbs","cannot_ed25519_prbs","broken_ed25519_prbs","can_ed448","cannot_ed448","broken_ed448","can_ed448_prbs","cannot_ed448_prbs","broken_ed448_prbs","can_gost","cannot_gost","broken_gost","can_gost_prbs","cannot_gost_prbs","broken_gost_prbs","can_sha384","cannot_sha384","broken_sha384","can_sha384_prbs","cannot_sha384_prbs","broken_sha384_prbs","is_internal","is_forwarding","is_external","is_internal_prbs","is_forwarding_prbs","is_external_prbs"
2017-06-20T23:59:59Z,73,118,61,42,116,73,55,38,29,21,0,0,0,0,0,0,0,118,0,73,0,118,0,73,0,0,0,0,0,0,0,0,3,96,18,4,63,14,9,109,0,7,68,1,27,90,0,20,59,1,9,109,0,7,68,1,25,92,0,19,60,1,25,92,0,19,60,1,25,92,0,19,60,1,0,118,0,1,73,1,23,94,0,17,61,1,23,94,0,17,61,1,0,118,0,0,73,1,0,118,0,0,73,1,16,101,0,13,65,1,24,93,0,18,60,1,49,28,41,40,24,32
2017-06-21T23:59:48Z,73,121,62,42,120,73,55,37,28,20,0,0,0,0,0,0,0,120,0,73,0,121,0,73,0,0,0,0,0,0,0,0,3,98,19,4,62,14,9,112,0,7,68,1,27,93,0,20,59,1,9,112,0,7,68,1,25,95,0,19,60,1,26,94,0,19,59,1,25,95,0,19,60,1,0,121,0,1,73,1,23,97,0,17,61,1,23,97,0,17,61,1,0,121,0,0,73,1,0,121,0,0,73,1,17,103,0,13,64,1,24,95,0,18,60,1,49,29,43,38,26,33
2017-06-22T23:59:46Z,73,122,63,42,119,73,57,38,33,24,0,0,0,0,0,0,0,121,0,73,0,122,0,73,0,0,0,0,0,0,0,0,2,103,16,3,65,13,8,114,0,6,69,1,24,97,0,18,61,1,8,114,0,6,69,1,26,95,0,19,60,1,26,95,0,19,60,1,26,95,0,19,60,1,0,122,0,1,73,1,23,98,0,17,61,1,23,98,0,17,61,1,0,122,0,0,73,1,0,122,0,0,73,1,16,105,0,13,65,1,26,94,0,19,58,1,50,29,43,38,26,33
2017-06-23T23:59:59Z,73,120,63,42,116,72,57,38,29,21,0,0,0,0,0,0,0,119,0,73,0,120,0,73,0,0,0,0,0,0,0,0,2,101,16,3,65,13,8,112,0,6,69,1,24,95,0,18,61,1,8,112,0,6,69,1,27,92,0,20,59,1,27,92,0,20,59,1,27,92,0,20,59,1,0,120,0,1,73,1,23,96,0,17,61,1,23,96,0,17,61,1,0,120,0,0,73,1,0,120,0,0,73,1,16,103,0,13,65,1,24,94,0,18,60,1,50,29,41,39,25,31
2017-06-24T23:59:59Z,71,119,62,41,116,71,58,39,30,22,0,0,0,0,0,0,0,118,0,71,0,119,0,71,0,0,0,0,0,0,0,0,2,98,18,3,62,14,8,111,0,6,67,1,26,92,0,19,58,1,8,111,0,6,67,1,24,94,0,18,59,1,24,94,0,18,59,1,24,94,0,18,59,1,0,119,0,1,71,1,23,95,0,17,59,1,24,94,0,17,58,1,0,119,0,0,71,1,0,119,0,0,71,1,16,102,0,13,63,1,23,94,0,17,59,1,53,24,42,40,22,32
2017-06-25T23:59:48Z,70,119,62,40,115,70,58,38,28,21,0,0,0,0,0,0,0,118,0,70,0,119,0,70,0,0,0,0,0,0,0,0,3,100,16,4,62,13,8,111,0,6,66,1,24,95,0,18,59,1,8,111,0,6,66,1,24,95,0,18,59,1,24,95,0,18,59,1,25,94,0,18,58,1,0,119,0,1,70,1,23,96,0,17,59,1,24,95,0,17,58,1,0,119,0,0,70,1,0,119,0,0,70,1,17,102,0,14,62,1,23,95,0,17,59,1,51,26,42,39,22,32
2017-06-26T23:59:48Z,71,120,63,41,119,71,57,37,29,21,0,0,0,0,0,0,0,119,0,71,0,120,0,71,0,0,0,0,0,0,0,0,2,100,18,3,63,14,8,112,0,6,67,1,26,94,0,19,59,1,8,112,0,6,67,1,25,95,0,19,59,1,25,95,0,19,59,1,25,95,0,19,59,1,0,120,0,1,71,1,23,97,0,17,60,1,23,97,0,17,60,1,0,120,0,0,71,1,0,120,0,0,71,1,16,104,0,13,64,1,24,95,0,17,59,1,52,26,42,40,22,32
2017-06-27T23:59:55Z,71,121,65,42,120,71,61,39,32,22,0,0,0,0,0,0,0,120,0,71,0,121,0,71,0,0,0,0,0,0,0,0,2,99,20,3,62,14,8,113,0,6,67,1,27,94,0,19,59,1,8,113,0,6,67,1,27,94,0,19,59,1,27,94,0,19,59,1,27,94,0,19,59,1,0,121,0,1,71,1,28,93,0,19,58,1,29,92,0,19,57,1,0,121,0,0,71,1,0,121,0,0,71,1,22,99,0,16,61,1,26,94,0,18,59,1,50,26,45,38,23,33
2017-06-28T23:59:52Z,72,123,67,43,122,72,61,39,34,23,0,0,0,0,0,0,0,122,0,72,0,123,0,72,0,0,0,0,0,0,0,0,2,100,21,3,63,14,8,115,0,6,68,0,29,94,0,20,59,0,8,115,0,6,68,0,27,96,0,19,60,0,27,96,0,19,60,0,27,96,0,19,60,0,0,123,0,1,72,0,26,97,0,18,60,0,26,97,0,18,60,0,0,123,0,0,72,0,0,123,0,0,72,0,21,102,0,15,63,0,28,94,0,19,59,0,48,30,45,37,25,33
2017-06-29T23:59:52Z,72,122,66,43,117,72,60,39,32,22,0,0,0,0,0,0,0,121,0,72,0,122,0,72,0,0,0,0,0,0,0,0,3,100,19,4,63,13,8,114,0,6,68,0,27,95,0,19,60,0,8,114,0,6,68,0,27,95,0,19,60,0,27,95,0,19,60,0,27,95,0,19,60,0,0,122,0,1,72,0,26,96,0,18,60,0,27,95,0,18,59,0,0,122,0,0,72,0,0,122,0,0,72,0,19,103,0,14,64,0,26,95,0,18,60,0,54,23,45,41,21,33
2017-06-30T23:59:59Z,73,123,67,44,121,73,60,39,31,22,0,0,0,0,0,0,0,122,0,73,0,123,0,73,0,0,0,0,0,0,0,0,4,99,20,5,63,14,9,114,0,8,68,0,30,93,0,22,58,0,9,114,0,8,68,0,30,93,0,22,58,0,31,92,0,23,57,0,31,92,0,23,57,0,0,123,0,2,73,0,29,94,0,20,58,0,28,95,0,20,59,0,0,123,0,0,73,0,0,123,0,0,73,0,21,102,0,16,63,0,29,93,0,21,58,0,51,27,45,39,24,33
2017-07-01T23:59:55Z,74,125,69,45,124,74,62,41,34,24,0,0,0,0,0,0,0,124,0,74,0,125,0,74,0,0,0,0,0,0,0,0,3,98,23,4,61,16,9,116,0,7,69,0,32,92,0,23,57,0,9,116,0,7,69,0,30,94,0,22,58,0,31,93,0,22,57,0,30,94,0,22,58,0,0,125,0,1,74,0,28,96,0,20,59,0,28,96,0,20,59,0,0,125,0,0,74,0,0,125,0,0,74,0,21,103,0,16,63,0,29,94,0,21,58,0,51,28,45,38,26,33
2017-07-02T23:59:52Z,74,124,69,45,123,74,65,42,36,25,0,0,0,0,0,0,0,123,0,74,0,124,0,74,0,0,0,0,0,0,0,0,5,97,21,5,61,15,9,115,0,7,69,0,31,92,0,23,57,0,9,115,0,7,69,0,30,93,0,22,58,0,30,93,0,22,58,0,30,93,0,22,58,0,0,124,0,1,74,0,28,95,0,20,59,0,28,95,0,20,59,0,0,124,0,0,74,0,0,124,0,0,74,0,23,100,0,17,62,0,29,93,0,21,58,0,50,30,44,38,26,32
2017-07-03T23:59:54Z,74,124,69,45,120,74,63,41,34,25,0,0,0,0,0,0,0,123,0,74,0,124,0,74,0,0,0,0,0,0,0,0,3,100,20,4,63,14,9,115,0,7,69,0,29,94,0,21,59,0,9,115,0,7,69,0,29,94,0,21,59,0,29,94,0,21,59,0,30,93,0,21,58,0,0,124,0,1,74,0,29,94,0,20,59,0,29,94,0,20,59,0,0,124,0,0,74,0,0,124,0,0,74,0,20,103,0,15,64,0,28,94,0,20,59,0,49,31,44,37,27,32
2017-07-04T23:59:53Z,74,124,69,45,122,73,63,41,33,23,0,0,0,0,0,0,0,123,0,74,0,124,0,74,0,0,0,0,0,0,0,0,4,99,20,5,62,14,9,115,0,7,69,0,29,94,0,21,59,0,9,115,0,7,69,0,29,94,0,21,59,0,29,94,0,21,59,0,29,94,0,21,59,0,0,124,0,1,74,0,27,96,0,19,60,0,27,96,0,19,60,0,0,124,0,0,74,0,0,124,0,0,74,0,20,103,0,15,64,0,28,94,0,20,59,0,51,29,44,38,26,32
2017-07-05T23:59:52Z,74,125,70,46,124,74,65,42,34,24,0,0,0,0,0,0,0,124,0,74,0,125,0,74,0,0,0,0,0,0,0,0,3,97,24,4,61,17,9,116,0,7,69,0,32,92,0,23,58,0,9,116,0,7,69,0,31,93,0,22,58,0,30,94,0,22,59,0,30,94,0,22,59,0,0,125,0,1,74,0,28,96,0,20,60,0,28,96,0,20,60,0,0,125,0,0,74,0,0,125,0,0,74,0,21,103,0,16,64,0,29,94,0,21,59,0,52,28,45,39,25,32
2017-07-06T23:59:59Z,73,121,70,46,120,73,64,43,36,26,0,0,0,0,0,0,0,120,0,73,0,121,0,73,0,0,0,0,0,0,0,0,3,96,21,4,61,15,9,112,0,7,68,0,30,90,0,22,57,0,9,112,0,7,68,0,33,87,0,23,55,0,32,88,0,23,56,0,32,88,0,23,56,0,0,121,0,1,73,0,29,91,0,20,57,0,29,91,0,20,57,0,0,121,0,0,73,0,0,121,0,0,73,0,23,97,0,17,61,0,30,89,0,22,56,0,51,28,42,39,24,30
2017-07-07T23:59:54Z,73,124,70,46,123,73,64,40,36,26,0,0,0,0,0,0,0,123,0,73,0,124,0,73,0,0,0,0,0,0,0,0,3,99,21,4,62,15,9,115,0,7,68,0,30,93,0,22,58,0,9,115,0,7,68,0,31,92,0,22,57,0,30,93,0,22,58,0,30,93,0,22,58,0,0,124,0,1,73,0,28,95,0,20,59,0,28,95,0,20,59,0,0,124,0,0,73,0,0,124,0,0,73,0,21,102,0,16,63,0,29,93,0,21,58,0,49,31,44,37,27,31
2017-07-08T23:59:54Z,74,124,70,46,121,73,63,40,34,24,0,0,0,0,0,0,0,123,0,74,0,124,0,74,0,0,0,0,0,0,0,0,3,98,22,4,62,15,9,115,0,7,69,0,31,92,0,22,58,0,9,115,0,7,69,0,29,94,0,21,59,0,29,94,0,21,59,0,30,93,0,21,58,0,0,124,0,1,74,0,27,96,0,19,60,0,27,96,0,19,60,0,0,124,0,0,74,0,0,124,0,0,74,0,20,103,0,15,64,0,29,93,0,20,58,0,52,28,43,39,26,31
2017-07-09T23:59:54Z,76,127,70,46,126,76,63,40,36,25,0,0,0,0,0,0,0,127,0,76,0,127,0,76,0,0,0,0,0,0,0,0,3,101,22,4,64,15,9,118,0,7,71,0,31,95,0,22,60,0,9,118,0,7,71,0,30,96,0,21,60,0,29,97,0,21,61,0,30,96,0,21,60,0,0,127,0,1,76,0,27,99,0,19,62,0,27,99,0,19,62,0,0,127,0,0,76,0,0,127,0,0,76,0,22,104,0,16,65,0,28,98,0,20,61,0,52,31,44,40,27,33
2017-07-10T23:59:59Z,77,129,69,46,127,76,63,41,32,23,0,0,0,0,0,0,0,129,0,77,0,129,0,77,0,0,0,0,0,0,0,0,3,103,22,4,65,15,9,120,0,7,72,0,31,97,0,22,61,0,9,120,0,7,72,0,29,99,0,21,62,0,29,99,0,21,62,0,30,98,0,21,61,0,0,129,0,1,77,0,27,101,0,19,63,0,27,101,0,19,63,0,0,129,0,0,77,0,0,129,0,0,77,0,20,108,0,15,67,0,28,100,0,20,62,0,54,29,46,43,25,34
2017-07-11T23:59:59Z,75,126,69,46,126,75,62,41,34,24,0,0,0,0,0,0,0,126,0,75,0,126,0,75,0,0,0,0,0,0,0,0,3,100,22,4,64,15,9,117,0,7,70,0,31,94,0,22,60,0,9,117,0,7,70,0,30,95,0,21,60,0,29,96,0,21,61,0,29,96,0,21,61,0,0,126,0,1,75,0,28,97,0,20,61,0,28,97,0,20,61,0,0,126,0,0,75,0,0,126,0,0,75,0,20,105,0,15,66,0,29,96,0,20,60,0,52,29,45,40,27,32
2017-07-12T23:59:59Z,75,124,72,47,123,75,68,44,37,26,0,0,0,0,0,0,0,124,0,75,0,124,0,75,0,0,0,0,0,0,0,0,3,96,24,4,62,17,9,115,0,7,70,0,33,90,0,24,58,0,9,115,0,7,70,0,31,92,0,23,59,0,31,92,0,23,59,0,31,92,0,23,59,0,0,124,0,1,75,0,29,94,0,21,60,0,29,94,0,21,60,0,0,124,0,0,75,0,0,124,0,0,75,0,23,100,0,17,63,0,31,92,0,23,58,0,50,29,45,39,25,32
2017-07-13T23:59:55Z,75,123,71,47,123,75,64,41,36,26,0,0,0,0,0,0,0,123,0,75,0,123,0,75,0,0,0,0,0,0,0,0,3,95,24,4,62,17,9,114,0,7,70,0,33,89,0,24,58,0,9,114,0,7,70,0,31,91,0,23,59,0,31,91,0,23,59,0,32,90,0,23,58,0,0,123,0,1,75,0,31,91,0,22,59,0,31,91,0,22,59,0,0,123,0,0,75,0,0,123,0,0,75,0,24,98,0,18,63,0,32,90,0,23,58,0,47,30,46,38,26,33
2017-07-14T23:59:59Z,75,124,71,47,123,75,65,42,37,26,0,0,0,0,0,0,0,124,0,75,0,124,0,75,0,0,0,0,0,0,0,0,3,98,22,4,63,16,9,115,0,7,70,0,31,92,0,23,59,0,9,115,0,7,70,0,31,92,0,23,59,0,31,92,0,23,59,0,31,92,0,23,59,0,0,124,0,1,75,0,29,94,0,21,60,0,29,94,0,21,60,0,0,124,0,0,75,0,0,124,0,0,75,0,24,99,0,18,63,0,30,93,0,22,59,0,48,29,47,38,26,34
2017-07-15T23:59:59Z,75,123,70,47,122,75,64,43,38,27,0,0,0,0,0,0,0,123,0,75,0,123,0,75,0,0,0,0,0,0,0,0,3,97,22,4,63,16,9,114,0,7,70,0,31,91,0,23,59,0,9,114,0,7,70,0,31,91,0,23,59,0,31,91,0,23,59,0,31,91,0,23,59,0,0,123,0,1,75,0,29,93,0,21,60,0,30,92,0,21,59,0,0,123,0,0,75,0,0,123,0,0,75,0,22,100,0,17,64,0,30,92,0,22,59,0,47,29,47,39,25,34
2017-07-16T23:59:59Z,75,123,71,47,120,75,66,43,36,25,0,0,0,0,0,0,0,123,0,75,0,123,0,75,0,0,0,0,0,0,0,0,3,94,25,4,61,17,9,114,0,7,70,0,33,89,0,24,58,0,9,114,0,7,70,0,31,91,0,23,59,0,31,91,0,23,59,0,31,91,0,23,59,0,0,123,0,1,75,0,29,93,0,21,60,0,29,93,0,21,60,0,0,123,0,0,75,0,0,123,0,0,75,0,22,100,0,17,64,0,31,91,0,22,58,0,48,29,46,39,25,33
2017-07-17T23:59:53Z,75,123,69,46,123,75,65,42,33,24,0,0,0,0,0,0,0,123,0,75,0,123,0,75,0,0,0,0,0,0,0,0,3,95,24,4,62,17,9,114,0,7,70,0,33,89,0,24,58,0,9,114,0,7,70,0,33,89,0,24,58,0,34,88,0,24,57,0,34,88,0,24,57,0,0,123,0,1,75,0,29,93,0,21,60,0,29,93,0,21,60,0,0,123,0,0,75,0,0,123,0,0,75,0,22,100,0,17,64,0,30,92,0,22,59,0,49,29,45,40,25,33
2017-07-18T23:59:55Z,74,124,70,46,122,73,65,42,34,25,0,0,0,0,0,0,0,124,0,74,0,124,0,74,0,0,0,0,0,0,0,0,3,95,25,4,60,18,9,115,0,7,69,0,34,89,0,25,56,0,9,115,0,7,69,0,33,90,0,24,57,0,33,90,0,24,57,0,33,90,0,24,57,0,0,124,0,1,74,0,30,93,0,22,58,0,30,93,0,22,58,0,0,124,0,0,74,0,0,124,0,0,74,0,22,101,0,17,63,0,30,93,0,22,58,0,52,27,45,40,24,33
2017-07-19T23:59:52Z,76,125,68,46,125,76,61,41,34,25,0,0,0,0,0,0,0,125,0,76,0,125,0,76,0,0,0,0,0,0,0,0,3,98,23,4,63,16,9,116,0,7,71,0,32,92,0,23,59,0,9,116,0,7,71,0,30,94,0,22,60,0,30,94,0,22,60,0,30,94,0,22,60,0,0,125,0,1,76,0,28,96,0,20,61,0,28,96,0,20,61,0,0,125,0,0,76,0,0,125,0,0,76,0,21,103,0,16,65,0,29,95,0,21,60,0,53,28,44,42,24,33
2017-07-20T23:59:59Z,76,125,68,46,124,76,61,41,35,25,0,0,0,0,0,0,0,125,0,76,2,123,1,75,0,0,0,0,0,0,0,0,3,100,21,3,64,15,9,116,0,7,71,0,30,94,0,22,60,0,9,116,0,7,71,0,30,94,0,22,60,0,31,93,0,22,59,0,30,94,0,22,60,0,0,125,0,1,76,0,28,96,0,20,61,0,28,96,0,20,61,0,0,125,0,0,76,0,0,125,0,0,76,0,21,103,0,16,65,0,29,93,2,21,59,1,53,28,44,41,25,33
2017-07-21T23:59:52Z,76,125,68,46,125,76,64,42,34,24,0,0,0,0,0,0,0,125,0,76,0,125,0,76,0,0,0,0,0,0,0,0,3,98,23,3,63,16,9,116,0,7,71,0,32,92,0,23,59,0,9,116,0,7,71,0,32,92,0,23,59,0,33,91,0,23,58,0,32,92,0,23,59,0,0,125,0,1,76,0,30,94,0,21,60,0,31,93,0,21,59,0,0,125,0,0,76,0,0,125,0,0,76,0,23,101,0,17,64,0,31,93,0,22,59,0,51,30,44,39,27,33
2017-07-22T23:59:59Z,76,125,68,46,122,75,61,41,35,25,0,0,0,0,0,0,0,125,0,76,0,125,0,76,0,0,0,0,0,0,0,0,3,98,23,3,63,16,9,116,0,7,71,0,32,92,0,23,59,0,9,116,0,7,71,0,30,94,0,22,60,0,30,94,0,22,60,0,30,94,0,22,60,0,0,125,0,1,76,0,28,96,0,20,61,0,28,96,0,20,61,0,0,125,0,0,76,0,0,125,0,0,76,0,24,100,0,17,63,0,31,93,0,22,59,0,53,28,44,42,24,33
2017-07-23T23:59:59Z,75,127,70,47,127,75,66,44,37,26,0,0,0,0,0,0,0,127,0,75,0,127,0,75,0,0,0,0,0,0,0,0,5,97,24,4,62,17,11,116,0,8,70,0,35,91,0,25,58,0,11,116,0,8,70,0,35,91,0,25,58,0,35,91,0,25,58,0,35,91,0,25,58,0,0,127,0,1,75,0,33,93,0,23,59,0,33,93,0,23,59,0,0,127,0,0,75,0,0,127,0,0,75,0,25,101,0,18,62,0,36,90,0,25,56,0,54,28,45,40,25,32
2017-07-24T23:59:54Z,75,124,70,47,124,75,63,42,37,26,0,0,0,0,0,0,0,124,0,75,0,124,0,75,0,0,0,0,0,0,0,0,5,94,24,4,61,17,11,113,0,8,69,0,35,88,0,25,57,0,11,113,0,8,69,0,33,90,0,24,58,0,34,89,0,24,57,0,33,90,0,24,58,0,0,124,0,1,75,0,30,93,0,23,61,0,33,90,0,23,58,0,0,124,0,0,75,0,0,124,0,0,75,0,22,101,0,16,65,0,32,91,0,23,58,0,53,27,44,41,23,32
2017-07-25T23:59:59Z,75,126,70,47,126,75,66,43,37,26,0,0,0,0,0,0,0,126,0,75,0,126,0,75,0,0,0,0,0,0,0,0,7,94,24,5,59,17,11,115,0,8,69,0,33,92,0,24,58,0,11,115,0,8,69,0,35,90,0,25,57,0,36,89,0,25,56,0,34,91,0,24,57,0,0,126,0,1,75,0,33,92,0,23,58,0,33,92,0,23,58,0,0,126,0,0,75,0,0,126,0,0,75,0,24,101,0,18,63,0,34,91,0,24,57,0,53,28,45,41,24,32
2017-07-26T23:59:59Z,73,120,67,45,118,73,62,41,33,24,0,0,0,0,0,0,0,120,0,73,2,118,1,72,0,0,0,0,0,0,0,0,5,91,23,4,59,16,10,110,0,7,68,0,33,86,0,23,56,0,10,110,0,7,68,0,33,86,0,23,56,0,33,86,0,23,56,0,33,86,0,23,56,0,0,120,0,1,73,0,31,88,0,21,57,0,31,88,0,21,57,0,0,120,0,0,73,0,0,120,0,0,73,0,24,95,0,17,60,0,32,87,0,22,56,0,54,25,41,40,23,30
2017-07-27T23:59:59Z,72,120,66,44,120,72,62,40,34,24,0,0,0,0,0,0,0,120,0,72,0,120,0,72,0,0,0,0,0,0,0,0,5,91,23,4,58,16,10,110,0,7,67,0,33,86,0,23,55,0,10,110,0,7,67,0,31,88,0,22,56,0,32,87,0,22,55,0,31,88,0,22,56,0,0,120,0,1,72,0,31,88,0,21,56,0,31,88,0,21,56,0,0,120,0,0,72,0,0,120,0,0,72,0,23,96,0,17,60,0,32,87,0,22,55,0,50,28,42,38,24,31
2017-07-28T23:59:59Z,73,121,66,44,121,73,61,40,33,23,0,0,0,0,0,0,0,121,0,73,0,121,0,73,0,0,0,0,0,0,0,0,5,92,23,4,59,16,10,111,0,7,68,0,33,87,0,23,56,0,10,111,0,7,68,0,33,87,0,23,56,0,34,86,0,23,55,0,33,87,0,23,56,0,0,121,0,1,73,0,31,89,0,21,57,0,32,88,0,21,56,0,0,121,0,0,73,0,0,121,0,0,73,0,23,97,0,17,61,0,32,88,0,22,56,0,50,29,42,38,25,31
2017-07-29T23:59:59Z,73,122,66,44,121,73,61,40,33,23,0,0,0,0,0,0,0,122,0,73,0,122,0,73,0,0,0,0,0,0,0,0,5,92,24,4,58,17,10,112,0,7,68,0,34,87,0,24,55,0,10,112,0,7,68,0,33,88,0,23,56,0,33,88,0,23,56,0,34,87,0,23,55,0,0,122,0,1,73,0,32,89,0,21,56,0,31,90,0,21,57,0,0,122,0,0,73,0,0,122,0,0,73,0,24,97,0,18,60,0,32,89,0,22,56,0,53,26,43,40,23,32
2017-07-30T23:59:59Z,73,121,66,44,121,73,62,41,33,23,0,0,0,0,0,0,0,121,0,73,0,121,0,73,0,0,0,0,0,0,0,0,6,91,23,5,58,16,10,111,0,7,68,0,33,87,0,23,56,0,10,111,0,7,68,0,33,87,0,23,56,0,33,87,0,23,56,0,33,87,0,23,56,0,0,121,0,1,73,0,31,89,0,21,57,0,31,89,0,21,57,0,0,121,0,0,73,0,0,121,0,0,73,0,23,97,0,17,61,0,34,86,0,23,54,0,49,30,42,37,26,31
2017-07-31T23:59:59Z,74,122,66,44,122,74,61,40,34,24,0,0,0,0,0,0,0,122,0,74,0,122,0,74,0,0,0,0,0,0,0,0,5,93,23,4,60,16,10,112,0,7,69,0,33,88,0,23,57,0,10,112,0,7,69,0,33,88,0,23,57,0,34,87,0,23,56,0,33,88,0,23,57,0,0,122,0,1,74,0,31,90,0,21,58,0,32,89,0,21,57,0,0,122,0,0,74,0,0,122,0,0,74,0,23,98,0,17,62,0,33,88,0,23,56,0,50,30,42,38,26,31
2017-08-01T23:59:59Z,74,123,66,44,123,74,62,41,33,23,0,0,0,0,0,0,0,123,0,74,0,123,0,74,0,0,0,0,0,0,0,0,4,95,23,3,61,16,9,114,0,6,70,0,32,90,0,22,58,0,9,114,0,6,70,0,32,90,0,22,58,0,32,90,0,22,58,0,32,90,0,22,58,0,0,123,0,1,74,0,29,93,0,20,59,0,29,93,0,20,59,0,0,123,0,0,74,0,0,123,0,0,74,0,24,98,0,17,61,0,31,91,0,21,58,0,52,28,43,40,24,32
2017-08-02T23:59:54Z,74,123,66,44,122,73,62,41,35,24,0,0,0,0,0,0,0,123,0,74,3,119,2,72,0,0,0,0,0,0,0,0,3,95,24,2,61,17,7,116,0,6,70,1,31,91,0,22,58,2,7,116,0,6,70,0,30,92,0,21,58,1,30,92,0,21,58,1,29,93,0,21,59,1,0,123,0,1,74,2,31,91,0,21,57,2,30,92,0,21,58,1,0,123,0,0,74,1,0,123,0,0,74,1,24,98,0,17,62,1,31,88,3,22,55,2,53,26,44,41,23,31
2017-08-03T23:59:52Z,74,122,66,44,122,74,62,41,34,23,0,0,0,0,0,0,0,122,0,74,0,122,2,74,0,0,0,0,0,0,0,0,3,94,24,2,61,17,7,115,0,6,70,1,31,90,0,22,58,2,7,115,0,6,70,0,29,92,0,21,59,1,29,92,0,21,59,1,29,92,0,21,59,1,0,122,0,1,74,2,30,91,0,21,58,2,30,91,0,21,58,1,0,122,0,0,74,1,0,122,0,0,74,1,25,96,0,17,61,1,32,89,0,22,56,1,54,25,43,41,23,31
2017-08-04T23:59:59Z,74,125,68,45,125,74,63,41,35,24,0,0,0,0,0,0,0,125,0,74,0,125,0,74,0,0,0,0,0,0,0,0,3,96,25,2,61,17,7,118,0,6,70,0,32,92,0,23,58,0,7,118,0,6,70,0,32,92,0,23,58,0,32,92,0,23,58,0,32,92,0,23,58,0,0,125,0,1,74,0,31,93,0,22,58,0,31,93,0,22,58,0,0,125,0,0,74,0,0,125,0,0,74,0,23,101,0,17,63,0,31,93,0,22,58,0,55,24,46,42,22,32
2017-08-05T23:59:59Z,73,120,67,45,120,73,62,41,37,25,0,0,0,0,0,0,0,120,0,73,0,120,0,73,0,0,0,0,0,0,0,0,3,91,25,2,60,17,7,113,0,6,69,0,32,87,0,23,57,0,7,113,0,6,69,0,32,87,0,23,57,0,32,87,0,23,57,0,32,87,0,23,57,0,0,120,0,1,73,0,29,90,0,21,58,0,29,90,0,21,58,0,0,120,0,0,73,0,0,120,0,0,73,0,26,93,0,18,60,0,31,88,0,22,57,0,46,30,44,35,27,31
2017-08-06T23:59:59Z,73,121,67,45,120,73,62,41,37,25,0,0,0,0,0,0,0,121,0,73,0,121,0,73,0,0,0,0,0,0,0,0,3,92,25,2,60,17,7,114,0,6,69,0,32,88,0,23,57,0,7,114,0,6,69,0,32,88,0,23,57,0,33,87,0,23,56,0,32,88,0,23,57,0,0,121,0,1,73,0,29,91,0,21,58,0,30,90,0,21,57,0,0,121,0,0,73,0,0,121,0,0,73,0,24,96,0,17,61,0,31,89,0,22,57,0,47,30,44,36,27,30
2017-08-07T23:59:53Z,72,119,66,44,118,72,61,40,34,23,0,0,0,0,0,0,0,119,0,72,0,119,0,72,0,0,0,0,0,0,0,0,3,91,24,2,59,16,7,112,0,6,68,0,32,86,0,22,55,0,7,112,0,6,68,0,31,87,0,22,56,0,32,86,0,22,55,0,31,87,0,22,56,0,0,119,0,1,72,0,30,88,0,21,56,0,30,88,0,21,56,0,0,119,0,0,72,0,0,119,0,0,72,0,23,95,0,17,61,0,31,87,0,21,55,0,49,28,42,37,25,30
2017-08-08T23:59:59Z,73,120,66,44,119,73,60,40,35,24,0,0,0,0,0,0,0,120,0,73,0,120,0,73,0,0,0,0,0,0,0,0,3,91,25,2,59,16,7,113,0,6,69,0,31,88,0,22,57,0,7,113,0,6,69,0,31,88,0,22,57,0,31,88,0,22,57,0,32,87,0,22,56,0,0,120,0,1,73,0,30,89,0,21,57,0,30,89,0,21,57,0,0,120,0,0,73,0,0,120,0,0,73,0,24,95,0,17,61,0,30,89,0,21,57,0,52,26,42,39,24,30
2017-08-09T23:59:59Z,73,120,67,45,120,73,61,39,36,25,0,0,0,0,0,0,0,120,0,73,0,120,0,73,0,0,0,0,0,0,0,0,3,92,24,2,60,16,7,113,0,6,69,0,31,88,0,22,57,0,7,113,0,6,69,0,32,87,0,23,56,0,32,87,0,23,56,0,32,87,0,23,56,0,0,120,0,1,73,0,30,89,0,21,57,0,30,89,0,21,57,0,0,120,0,0,73,0,0,120,0,0,73,0,24,95,0,17,61,0,30,87,2,21,56,1,49,29,42,37,26,30
2017-08-10T23:59:53Z,72,118,67,45,118,72,59,38,36,25,0,0,0,0,0,0,0,118,0,72,0,118,0,72,0,0,0,0,0,0,0,0,4,89,24,3,58,16,7,111,0,6,68,0,32,85,0,23,55,0,7,111,0,6,68,0,31,86,0,22,56,0,32,85,0,22,55,0,31,86,0,22,56,0,0,118,0,1,72,0,30,87,0,21,55,0,30,87,0,21,55,0,0,118,0,0,72,0,0,118,0,0,72,0,22,95,0,16,61,0,31,86,0,21,55,0,51,26,41,38,24,29
2017-08-11T23:59:52Z,73,120,67,45,120,73,61,39,34,24,0,0,0,0,0,0,0,120,0,73,0,120,0,73,0,0,0,0,0,0,0,0,3,91,25,2,59,17,7,113,0,6,69,0,30,89,0,22,57,0,7,113,0,6,69,0,31,88,0,22,57,0,32,87,0,22,56,0,29,90,0,21,58,0,0,120,0,1,73,0,30,89,0,21,57,0,30,89,0,21,57,0,0,120,0,0,73,0,0,120,0,0,73,0,24,95,0,17,61,0,30,89,0,21,57,0,54,24,42,41,22,30
2017-08-12T23:59:59Z,73,121,67,45,120,73,62,40,36,25,0,0,0,0,0,0,0,121,1,73,0,121,0,73,0,0,0,0,0,0,0,0,4,91,25,3,58,17,7,114,0,6,69,0,31,89,0,22,57,0,7,114,0,6,69,0,31,89,0,22,57,0,31,89,0,22,57,0,31,89,0,22,57,0,0,121,0,1,73,0,30,90,0,21,57,0,30,90,0,21,57,0,0,121,0,0,73,0,0,121,0,0,73,0,24,96,0,17,61,0,31,89,0,21,56,0,52,26,43,40,23,31
2017-08-13T23:59:59Z,73,119,66,45,119,73,61,40,35,24,0,0,0,0,0,0,0,119,1,73,0,119,0,73,0,0,0,0,0,0,0,0,4,91,23,3,60,16,7,112,0,6,69,0,31,87,0,22,57,0,7,112,0,6,69,0,32,86,0,23,56,0,32,86,0,23,56,0,32,86,0,23,56,0,0,119,0,1,73,0,30,88,0,21,57,0,31,87,0,21,56,0,0,119,0,0,73,0,0,119,0,0,73,0,23,95,0,17,61,0,32,86,0,23,55,0,48,29,42,37,26,30
2017-08-14T23:59:59Z,74,121,67,46,121,74,63,42,34,24,0,0,0,0,0,0,0,121,0,74,0,121,1,74,0,0,0,0,0,0,0,0,4,92,24,3,60,17,8,113,0,7,69,1,33,87,0,24,56,1,8,113,0,7,69,1,31,89,0,22,57,1,31,89,0,23,57,1,31,89,0,22,57,1,0,121,0,1,74,1,32,88,0,22,56,1,31,89,0,22,57,1,0,121,0,0,74,1,0,121,0,0,74,1,24,96,0,17,62,1,31,89,0,22,57,1,51,27,43,40,24,31
2017-08-15T23:59:59Z,73,120,68,46,119,73,63,41,34,23,0,0,0,0,0,0,1,119,1,72,0,120,0,73,0,0,0,0,0,0,0,0,3,91,25,2,59,16,8,112,0,7,68,0,32,87,0,23,56,0,8,112,0,7,68,0,34,85,0,24,54,0,33,86,0,24,55,0,33,86,0,24,55,0,0,120,0,1,73,0,31,88,0,22,56,0,31,88,0,22,56,0,0,120,0,0,73,0,0,120,0,0,73,0,25,94,0,17,60,0,31,88,0,22,56,0,51,27,42,39,24,30
2017-08-16T23:59:59Z,73,118,68,46,118,73,62,40,35,24,0,0,0,0,0,0,0,118,1,73,0,118,0,73,0,0,0,0,0,0,0,0,3,88,26,2,58,17,8,110,0,7,68,0,33,84,0,24,55,0,8,110,0,7,68,0,32,85,0,23,56,0,32,85,0,23,56,0,32,85,0,23,56,0,0,118,0,1,73,0,31,86,0,22,56,0,31,86,0,22,56,0,0,118,0,0,73,0,0,118,0,0,73,0,24,93,0,17,61,0,31,86,0,22,56,0,51,27,40,39,24,28
2017-08-17T23:59:52Z,73,119,68,46,117,73,61,40,36,25,0,0,0,0,0,0,1,118,2,72,0,119,0,73,0,0,0,0,0,0,0,0,3,90,25,2,59,17,8,111,0,7,68,0,33,85,0,24,55,0,8,111,0,7,68,0,30,88,0,22,57,0,30,88,0,22,57,0,30,88,0,22,57,0,0,119,0,1,73,0,31,87,0,22,56,0,31,87,0,22,56,0,0,119,0,0,73,0,0,119,0,0,73,0,25,93,0,18,60,0,29,89,0,21,57,0,51,27,41,39,24,30
2017-08-18T23:59:54Z,73,119,67,46,118,72,60,40,35,24,0,0,0,0,0,0,0,119,0,73,0,119,0,73,0,0,0,0,0,0,0,0,3,93,22,2,61,15,8,111,0,7,68,0,30,88,0,22,57,0,8,111,0,7,68,0,30,88,0,22,57,0,31,87,0,22,56,0,31,87,0,22,56,0,0,119,0,1,73,0,31,87,0,22,56,0,32,86,0,22,55,0,0,119,0,0,73,0,0,119,0,0,73,0,24,94,0,17,61,0,31,87,0,22,56,0,47,30,42,36,27,30
2017-08-19T23:59:52Z,72,118,67,46,117,71,60,40,35,24,0,0,0,0,0,0,0,118,1,72,0,118,0,72,0,0,0,0,0,0,0,0,3,89,25,2,58,16,8,110,0,7,67,0,32,85,0,23,55,0,8,110,0,7,67,0,32,85,0,23,55,0,33,84,0,24,54,0,32,85,0,23,55,0,0,118,0,1,72,0,32,85,0,23,54,0,31,86,0,22,55,0,0,118,0,0,72,0,0,118,0,0,72,0,24,93,0,17,60,0,31,86,0,22,55,0,50,26,42,38,24,30
2017-08-20T23:59:59Z,72,117,67,46,117,72,62,41,36,25,0,0,0,0,0,0,0,117,0,72,0,117,0,72,0,0,0,0,0,0,0,0,3,89,24,2,59,16,8,109,0,7,67,0,32,84,0,23,55,0,8,109,0,7,67,0,33,83,0,23,54,0,33,83,0,23,54,0,32,84,0,23,55,0,0,117,0,1,72,0,29,87,0,21,56,0,29,87,0,21,56,0,0,117,0,0,72,0,0,117,0,0,72,0,24,92,0,17,60,0,32,84,0,23,54,0,48,28,41,37,25,29
2017-08-21T23:59:52Z,73,121,71,48,121,73,64,42,40,27,0,0,0,0,0,0,0,121,0,73,0,121,0,73,0,0,0,0,0,0,0,0,3,92,25,2,61,17,8,113,0,7,68,0,33,87,0,24,57,0,8,113,0,7,68,0,33,87,0,24,57,0,33,87,0,24,57,0,33,87,0,24,57,0,0,121,0,1,73,0,33,87,0,23,56,0,32,88,0,23,57,0,0,121,0,0,73,0,0,121,0,0,73,0,25,95,0,18,62,0,32,88,0,23,57,0,50,28,43,38,25,29